Location: *
(42.3442°N, 9.2072°E)
Time: 16:03:04
(UTC+00:00)

ATLAS 2AS CENTAUR R/B - Pass Details

Date: 09 April 2020
Orbit: 933 x 1279 km, 63.7° (Epoch: 25 May)

Event Time Altitude Azimuth Distance (km) Brightness Sun altitude
Rises 19:58:24 0° 319° (NW) 4,131 7.1 -21.2°
Reaches altitude 10° 20:01:27 10° 312° (NW) 3,116 6.3 -21.7°
Maximum altitude 20:08:08 38° 248° (WSW) 1,653 3.9 -22.7°
Enters shadow 20:13:02 16° 189° (S) 2,482 4.3 -23.4°
